TWY17 KEUG-KBOS

Flight info

Callsign TWY17
Flight time N/A
Altitude 41000
Route EUG IMB KUBZF LVM VLBRG MMUDY SMERF GOLLF RHI LUTNT/N0493F450 SIKBO Q140 AHPAH LAMMS PONCT JFUND2
Aircraft C750/M-SBDE1E2E3FGHIM1RVWXY/SB1

Departure

Time 2026-04-21 21:04
Airport Eugene Airport (KEUG)

Arrival

Time N/A
Airport Boston Logan International Airport (KBOS)
Time Latitude Longitude Altitude Speed Heading
2026-04-21 20:44 44.12401 -123.21026 367 ft 0 kts 307°
2026-04-21 20:59 44.12402 -123.21028 367 ft 1 kts 307°
2026-04-21 20:59 44.12415 -123.21050 367 ft 8 kts 315°
2026-04-21 20:59 44.12455 -123.21081 367 ft 7 kts 346°
2026-04-21 21:00 44.12499 -123.21070 366 ft 7 kts 20°
2026-04-21 21:00 44.12535 -123.21040 366 ft 7 kts 31°
2026-04-21 21:00 44.12586 -123.21014 366 ft 10 kts
2026-04-21 21:00 44.12636 -123.21057 366 ft 10 kts 271°
2026-04-21 21:01 44.12636 -123.21167 365 ft 13 kts 269°
2026-04-21 21:01 44.12634 -123.21307 364 ft 16 kts 269°
2026-04-21 21:01 44.12633 -123.21488 364 ft 21 kts 269°
2026-04-21 21:01 44.12639 -123.21696 359 ft 19 kts 302°
2026-04-21 21:02 44.12754 -123.21714 354 ft 20 kts 360°
2026-04-21 21:02 44.12927 -123.21716 355 ft 27 kts 360°
2026-04-21 21:02 44.13110 -123.21720 353 ft 26 kts 359°
2026-04-21 21:02 44.13277 -123.21721 354 ft 21 kts 359°
2026-04-21 21:03 44.13407 -123.21724 356 ft 18 kts 360°
2026-04-21 21:03 44.13520 -123.21735 356 ft 14 kts 329°
2026-04-21 21:03 44.13536 -123.21838 354 ft 14 kts 265°
2026-04-21 21:03 44.13441 -123.21916 355 ft 40 kts 179°
2026-04-21 21:04 44.12835 -123.21906 360 ft 129 kts 180°
2026-04-21 21:04 44.11825 -123.21900 614 ft 151 kts 180°
2026-04-21 21:04 44.10752 -123.22117 986 ft 167 kts 200°
2026-04-21 21:04 44.09633 -123.22788 1420 ft 182 kts 204°
2026-04-21 21:05 44.08391 -123.23569 1771 ft 208 kts 204°
2026-04-21 21:05 44.07063 -123.24488 2368 ft 218 kts 213°
2026-04-21 21:05 44.06094 -123.26224 2624 ft 245 kts 249°
2026-04-21 21:05 44.05995 -123.28597 3158 ft 255 kts 283°
2026-04-21 21:06 44.06878 -123.30723 3891 ft 260 kts 315°
2026-04-21 21:06 44.08490 -123.31890 4658 ft 264 kts 344°
2026-04-21 21:06 44.10312 -123.32309 5435 ft 269 kts 352°
2026-04-21 21:06 44.12217 -123.32556 6231 ft 273 kts 354°
2026-04-21 21:07 44.14107 -123.32737 6955 ft 278 kts 356°
2026-04-21 21:07 44.15991 -123.32071 7627 ft 286 kts 30°
2026-04-21 21:07 44.17315 -123.30043 8473 ft 287 kts 63°
2026-04-21 21:07 44.17890 -123.27395 9323 ft 287 kts 81°
2026-04-21 21:08 44.18181 -123.24624 10105 ft 290 kts 84°
2026-04-21 21:08 44.18497 -123.21800 10571 ft 303 kts 81°
2026-04-21 21:08 44.18952 -123.18863 11022 ft 317 kts 79°
2026-04-21 21:08 44.19447 -123.15803 11453 ft 331 kts 79°
2026-04-21 21:09 44.19919 -123.12603 11893 ft 341 kts 81°
2026-04-21 21:09 44.20385 -123.09326 12327 ft 347 kts 81°
2026-04-21 21:09 44.20871 -123.05995 12580 ft 355 kts 81°
2026-04-21 21:09 44.21377 -123.02628 13097 ft 354 kts 81°
2026-04-21 21:10 44.21709 -123.00394 13421 ft 355 kts 81°
2026-04-21 21:10 44.22200 -122.97012 13866 ft 357 kts 82°
2026-04-21 21:10 44.22692 -122.93610 14269 ft 360 kts 82°
2026-04-21 21:10 44.23192 -122.90171 14624 ft 363 kts 82°
2026-04-21 21:11 44.23697 -122.86713 14991 ft 366 kts 82°
2026-04-21 21:11 44.24203 -122.83212 15333 ft 369 kts 83°
2026-04-21 21:11 44.24713 -122.79691 15692 ft 372 kts 83°
2026-04-21 21:11 44.25224 -122.76143 16055 ft 376 kts 84°
2026-04-21 21:12 44.25736 -122.72565 16590 ft 377 kts 84°
2026-04-21 21:12 44.26253 -122.68966 17105 ft 381 kts 85°
2026-04-21 21:12 44.26782 -122.65319 17672 ft 385 kts 85°
2026-04-21 21:12 44.27311 -122.61640 18251 ft 388 kts 85°
2026-04-21 21:13 44.27834 -122.57932 18724 ft 391 kts 86°
2026-04-21 21:13 44.28363 -122.54211 19358 ft 391 kts 86°
2026-04-21 21:13 44.28893 -122.50487 19987 ft 390 kts 86°
2026-04-21 21:13 44.29415 -122.46828 20556 ft 391 kts 86°
2026-04-21 21:14 44.29934 -122.43080 21094 ft 394 kts 87°
2026-04-21 21:14 44.30459 -122.39326 21687 ft 395 kts 86°
2026-04-21 21:14 44.30996 -122.35558 22268 ft 397 kts 86°
2026-04-21 21:14 44.31530 -122.31777 22841 ft 399 kts 87°
2026-04-21 21:15 44.32059 -122.27953 23371 ft 402 kts 87°
2026-04-21 21:15 44.32592 -122.24122 23865 ft 403 kts 87°
2026-04-21 21:15 44.33132 -122.20258 24216 ft 408 kts 88°
2026-04-21 21:15 44.33674 -122.16352 24593 ft 412 kts 88°
2026-04-21 21:16 44.34219 -122.12408 25029 ft 414 kts 88°
2026-04-21 21:16 44.34766 -122.08445 25428 ft 417 kts 88°
2026-04-21 21:16 44.35316 -122.04440 25833 ft 421 kts 88°
2026-04-21 21:16 44.35869 -122.00407 26215 ft 425 kts 89°
2026-04-21 21:17 44.36428 -121.96330 26624 ft 428 kts 89°
2026-04-21 21:17 44.36987 -121.92232 27044 ft 431 kts 89°
2026-04-21 21:17 44.37543 -121.88149 27470 ft 434 kts 89°
2026-04-21 21:17 44.38107 -121.83988 27895 ft 438 kts 90°
2026-04-21 21:18 44.38674 -121.79797 28327 ft 441 kts 90°
2026-04-21 21:18 44.39246 -121.75557 28730 ft 444 kts 90°
2026-04-21 21:18 44.39818 -121.71307 29161 ft 448 kts 90°
2026-04-21 21:18 44.40395 -121.67005 29583 ft 451 kts 90°
2026-04-21 21:19 44.40973 -121.62680 29995 ft 455 kts 91°
2026-04-21 21:19 44.41555 -121.58305 30362 ft 458 kts 91°
2026-04-21 21:19 44.42140 -121.53917 30765 ft 460 kts 90°
2026-04-21 21:19 44.42725 -121.49523 31330 ft 458 kts 90°
2026-04-21 21:20 44.43304 -121.45152 31934 ft 456 kts 90°
2026-04-21 21:20 44.43877 -121.40784 32482 ft 455 kts 90°
2026-04-21 21:20 44.44446 -121.36433 33013 ft 454 kts 90°
2026-04-21 21:20 44.45015 -121.32099 33596 ft 452 kts 90°
2026-04-21 21:21 44.45580 -121.27777 34125 ft 450 kts 90°
2026-04-21 21:21 44.46141 -121.23458 34534 ft 451 kts 90°
2026-04-21 21:21 44.46697 -121.19133 34915 ft 453 kts 90°
2026-04-21 21:21 44.47259 -121.14786 35319 ft 454 kts 89°
2026-04-21 21:22 44.47823 -121.10435 35711 ft 455 kts 89°
2026-04-21 21:22 44.48383 -121.06076 36114 ft 455 kts 89°
2026-04-21 21:22 44.48935 -121.01757 36483 ft 457 kts 88°
2026-04-21 21:22 44.49501 -120.97315 36873 ft 458 kts 88°
2026-04-21 21:23 44.50054 -120.92974 37263 ft 459 kts 88°
2026-04-21 21:23 44.50613 -120.88575 37659 ft 460 kts 88°
2026-04-21 21:23 44.51170 -120.84165 38057 ft 461 kts 87°
2026-04-21 21:23 44.51726 -120.79744 38448 ft 462 kts 87°
2026-04-21 21:24 44.52284 -120.75310 38781 ft 462 kts 87°
2026-04-21 21:24 44.52842 -120.70853 39103 ft 463 kts 87°
2026-04-21 21:24 44.53396 -120.66403 39382 ft 465 kts 86°
2026-04-21 21:24 44.53951 -120.61942 39724 ft 464 kts 86°
2026-04-21 21:25 44.54507 -120.57468 40023 ft 465 kts 86°
2026-04-21 21:25 44.55058 -120.52999 40271 ft 466 kts 86°
2026-04-21 21:25 44.55610 -120.48511 40574 ft 467 kts 86°
2026-04-21 21:25 44.56160 -120.44031 40834 ft 468 kts 85°
2026-04-21 21:26 44.57268 -120.34933 40815 ft 479 kts 86°
2026-04-21 21:26 44.58398 -120.25615 40837 ft 489 kts 86°
2026-04-21 21:27 44.59532 -120.16188 40837 ft 497 kts 86°
2026-04-21 21:27 44.60690 -120.06499 40826 ft 504 kts 86°
2026-04-21 21:28 44.61840 -119.96802 40830 ft 509 kts 86°
2026-04-21 21:29 44.63578 -119.82014 40816 ft 514 kts 86°
2026-04-21 21:29 44.64733 -119.72096 40812 ft 514 kts 86°
2026-04-21 21:30 44.66276 -119.62264 40793 ft 517 kts 82°
2026-04-21 21:30 44.67875 -119.52439 40784 ft 515 kts 83°
2026-04-21 21:31 44.69433 -119.42639 40779 ft 514 kts 82°
2026-04-21 21:31 44.71007 -119.32836 40772 ft 513 kts 83°
2026-04-21 21:32 44.72537 -119.23119 40774 ft 512 kts 83°
2026-04-21 21:32 44.74086 -119.13325 40764 ft 513 kts 83°
2026-04-21 21:33 44.75618 -119.03508 40758 ft 515 kts 83°
2026-04-21 21:33 44.77155 -118.93661 40760 ft 515 kts 83°
2026-04-21 21:34 44.78678 -118.83791 40762 ft 516 kts 83°